Location: Unspecified
(35.6961°N, 0.0000°E)
Time: 06:33:33
(UTC+00:00)

UNISAT 6 - Pass Details

Date: 18 June 2019
Orbit: 607 x 689 km, 97.8° (Epoch: 15 July)

Event Time Altitude Azimuth Distance (km) Brightness Sun altitude
Rises 20:01:57 0° 29° (NNE) 2,879 ? -8.2°
Reaches altitude 10° 20:04:35 10° 46° (NE) 1,977 ? -8.6°
Maximum altitude 20:07:51 21° 95° (E) 1,401 ? -9.2°
Enters shadow 20:10:40 12° 140° (SE) 1,857 ? -9.6°
